Regional Weather Roundup
Issued by NWS

Home | Current Version | Previous Version | Text Only | Print | Product List | Glossary Off
Versions: 1 2 3 4 5 6 7 8 9 10 11 12 13 14 15 16 17 18 19 20 21 22 23 24 25 26 27 28 29 30 31 32 33 34 35 36 37 38 39 40 41 42 43 44 45 46 47 48 49 50

000
ASUS43 KBIS 080410
RWRND

NORTH DAKOTA REGIONAL WEATHER ROUNDUP
NATIONAL WEATHER SERVICE BISMARCK ND
1000 PM CST SUN FEB 07 2016

NOTE: "FAIR" INDICATES FEW OR NO CLOUDS BELOW 12,000 FEET WITH NO
SIGNIFICANT WEATHER AND/OR OBSTRUCTIONS TO VISIBILITY.


NDZ001>003-009>011-017-080500-
NORTHWEST NORTH DAKOTA

CITY           SKY/WX    TMP DP  RH WIND       PRES   REMARKS
WILLISTON      CLEAR     29  19  66 NW18G28   30.30R WCI  16
MINOT          FLURRIES  28  16  60 NW25G37   30.16R WCI  13
MINOT AFB      PTCLDY    26  20  77 NW28G37   30.15R WCI  10
$$

NDZ018>021-031>035-040>046-080500-
SOUTHWEST NORTH DAKOTA

CITY           SKY/WX    TMP DP  RH WIND       PRES   REMARKS
BISMARCK       MOCLDY    32  18  56 NW28G46   30.16R WCI  18
DICKINSON      CLEAR     27  15  61 NW24G33   30.22R WCI  12
GARRISON         N/A     26  18  71 NW28G38   30.17R WCI  10
HETTINGER ARPT CLEAR     28  15  58 NW21G30   30.24R WCI  15
$$

NDZ004>008-012>016-024-026-027-054-080500-
NORTHEAST NORTH DAKOTA

CITY           SKY/WX    TMP DP  RH WIND       PRES   REMARKS
GRAND FORKS    LGT SNOW  14   9  80 N29G38    30.03R BLWGSNOWWCI  -7
GRND FRKS AFB  LGT SNOW  15   9  78 NW29G36   30.04R WCI  -6
DEVILS LAKE    FLURRIES  19  15  84 N25G32    30.06R WCI   1
$$

NDZ022-023-025-028>030-036>039-047>053-080500-
SOUTHEAST NORTH DAKOTA

CITY           SKY/WX    TMP DP  RH WIND       PRES   REMARKS
FARGO          SNOW      15  10  80 N32G39    30.02R VSB 1/2 WCI  -6
JAMESTOWN      MIX PCPN  22  15  75 N31G49    30.03R WCI   4
$$




USA.gov is the U.S. government's official web portal to all federal, state and local government web resources and services.